Location: Chena
(64.8152°N, 147.9227°W)
Time: 16:38:38
(UTC+00:00)

SR - All Passes

Search period start: 27 February 2021 00:00
Search period end: 09 March 2021 00:00
Orbit: 573 x 882 km, 66.7° (Epoch: 26 February)

Date Brightness Start Highest point End Pass type
(mag) Time Alt. Az. Time Alt. Az. Time Alt. Az.
27 Feb - 05:57:56 10° SSE 06:02:09 24° ESE 06:06:35 10° ENE visible
27 Feb - 07:38:00 10° SW 07:43:22 59° SE 07:49:07 10° ENE night (unlit)
27 Feb - 09:19:52 10° WSW 09:25:29 81° NNW 09:31:27 10° ENE visible
27 Feb - 11:02:15 10° WNW 11:08:00 76° N 11:13:59 10° E visible
27 Feb - 12:44:29 10° WNW 12:50:18 73° SSW 12:56:15 10° SE visible
27 Feb - 14:26:43 10° WNW 14:31:55 33° SW 14:37:10 10° S visible
27 Feb - 16:10:44 10° W 16:12:31 11° WSW 16:14:18 10° WSW visible
28 Feb - 05:09:41 10° SE 05:12:55 16° ESE 05:16:16 10° ENE visible
28 Feb - 06:48:38 10° SSW 06:53:46 44° SE 06:59:16 10° ENE visible
28 Feb - 08:30:03 10° WSW 08:35:37 88° SSE 08:41:34 10° ENE visible
28 Feb - 10:12:21 10° W 10:18:03 74° N 10:24:02 10° E visible
28 Feb - 11:54:40 10° WNW 12:00:30 88° SSW 12:06:30 10° ESE visible
28 Feb - 13:36:50 10° WNW 13:42:24 45° SW 13:48:01 10° SSE visible
28 Feb - 15:19:40 10° WNW 15:23:22 17° WSW 15:27:06 10° SSW visible
01 Mar - 04:23:03 10° ESE 04:23:49 10° E 04:24:35 10° E visible
01 Mar - 05:59:31 10° S 06:04:17 32° ESE 06:09:22 10° ENE visible
01 Mar - 07:40:19 10° SW 07:45:49 74° SSE 07:51:42 10° ENE visible
01 Mar - 09:22:27 10° W 09:28:07 76° N 09:34:05 10° ENE visible
01 Mar - 11:04:50 10° WNW 11:10:38 82° NNE 11:16:38 10° ESE visible
01 Mar - 12:47:02 10° WNW 12:52:47 60° SW 12:58:36 10° SE visible
01 Mar - 14:29:25 10° WNW 14:34:05 25° WSW 14:38:47 10° S visible
02 Mar - 05:10:45 10° SSE 05:14:55 23° ESE 05:19:18 10° ENE visible
02 Mar - 06:50:45 10° SW 06:56:07 58° SE 07:01:52 10° ENE visible
02 Mar - 08:32:34 10° WSW 08:38:13 82° NNW 08:44:10 10° ENE visible
02 Mar - 10:14:57 10° WNW 10:20:43 76° N 10:26:42 10° E visible
02 Mar - 11:57:13 10° WNW 12:03:03 75° SSW 12:09:00 10° SE visible
02 Mar - 13:39:26 10° WNW 13:44:41 34° SW 13:49:58 10° S visible
02 Mar - 15:23:14 10° W 15:25:19 12° WSW 15:27:25 10° WSW visible
03 Mar - 04:22:35 10° SE 04:25:42 16° ESE 04:28:58 10° ENE visible
03 Mar - 06:01:23 10° SSW 06:06:31 43° SE 06:12:00 10° ENE visible
03 Mar - 07:42:45 10° WSW 07:48:21 87° SSE 07:54:18 10° ENE visible
03 Mar - 09:25:03 10° W 09:30:46 74° N 09:36:45 10° E visible
03 Mar - 11:07:23 10° WNW 11:13:14 89° SSW 11:19:14 10° ESE visible
03 Mar - 12:49:34 10° WNW 12:55:10 47° SW 13:00:48 10° SSE visible
03 Mar - 14:32:20 10° WNW 14:36:10 18° WSW 14:40:00 10° SSW visible
04 Mar - 05:12:18 10° S 05:17:03 31° ESE 05:22:06 10° ENE visible
04 Mar - 06:53:02 10° SW 06:58:34 72° SE 07:04:27 10° ENE visible
04 Mar - 08:35:09 10° W 08:40:51 76° N 08:46:49 10° ENE visible
04 Mar - 10:17:32 10° WNW 10:23:22 81° NNE 10:29:21 10° ESE visible
04 Mar - 11:59:44 10° WNW 12:05:31 61° SW 12:11:22 10° SE visible
04 Mar - 13:42:07 10° WNW 13:46:53 26° WSW 13:51:38 10° S visible
05 Mar - 04:23:35 10° SSE 04:27:43 22° ESE 04:32:02 10° ENE visible
05 Mar - 06:03:29 10° SW 06:08:52 56° SE 06:14:36 10° ENE visible
05 Mar - 07:45:16 10° WSW 07:50:56 83° NNW 07:56:55 10° ENE visible
05 Mar - 09:27:39 10° W 09:33:26 75° N 09:39:26 10° E visible
05 Mar - 11:09:56 10° WNW 11:15:47 76° SSW 11:21:45 10° SE visible
05 Mar - 12:52:09 10° WNW 12:57:27 36° SW 13:02:46 10° S visible
05 Mar - 14:35:46 10° W 14:38:07 12° WSW 14:40:28 10° SW night (unlit)
06 Mar - 03:35:28 10° SE 03:38:29 15° ESE 03:41:37 10° ENE daylight
06 Mar - 05:14:09 10° SSW 05:19:16 42° SE 05:24:45 10° ENE visible
06 Mar - 06:55:27 10° WSW 07:01:05 86° SSE 07:07:02 10° ENE visible
06 Mar - 08:37:45 10° W 08:43:30 74° N 08:49:29 10° E visible
06 Mar - 10:20:06 10° WNW 10:25:58 90° SSW 10:31:58 10° ESE visible
06 Mar - 12:02:17 10° WNW 12:07:55 48° SW 12:13:34 10° SSE visible
06 Mar - 13:45:00 10° WNW 13:48:57 19° WSW 13:52:54 10° SSW visible
07 Mar - 04:25:04 10° S 04:29:49 30° ESE 04:34:49 10° ENE visible
07 Mar - 06:05:45 10° SW 06:11:18 71° SE 06:17:11 10° ENE visible
07 Mar - 07:47:50 10° W 07:53:34 77° N 07:59:33 10° ENE visible
07 Mar - 09:30:15 10° WNW 09:36:05 80° NNE 09:42:05 10° ESE visible
07 Mar - 11:12:27 10° WNW 11:18:16 63° SW 11:24:08 10° SE visible
07 Mar - 12:54:49 10° WNW 12:59:39 27° WSW 13:04:28 10° S visible
08 Mar - 03:36:24 10° SSE 03:40:29 22° ESE 03:44:44 10° ENE daylight
08 Mar - 05:16:13 10° SSW 05:21:36 55° SE 05:27:20 10° ENE visible
08 Mar - 06:57:58 10° WSW 07:03:39 84° NNW 07:09:38 10° ENE visible
08 Mar - 08:40:22 10° W 08:46:10 75° N 08:52:09 10° E visible
08 Mar - 10:22:38 10° WNW 10:28:32 78° SSW 10:34:29 10° SE visible
08 Mar - 12:04:52 10° WNW 12:10:13 37° SW 12:15:34 10° S visible
08 Mar - 13:48:21 10° WNW 13:50:55 13° WSW 13:53:29 10° SW visible
